MST,Max TemperatureF,Mean TemperatureF,Min TemperatureF,Max Dew PointF,MeanDew PointF,Min DewpointF,Max Humidity, Mean Humidity, Min Humidity, Max Sea Level PressureIn, Mean Sea Level PressureIn, Min Sea Level PressureIn, Max VisibilityMiles, Mean VisibilityMiles, Min VisibilityMiles, Max Wind SpeedMPH, Mean Wind SpeedMPH, Max Gust SpeedMPH,PrecipitationIn, CloudCover, Events, WindDirDegrees
2012-11-1,28,24,20,28,25,19,100,96,93,30.06,29.92,29.88,5,2,0,7,5,,0.02,7,Fog,21
2012-11-2,31,26,21,30,29,27,100,98,90,30.25,30.19,30.03,6,2,0,10,3,,0.00,8,Fog,162
2012-11-3,41,32,24,32,28,25,100,93,65,30.12,30.03,29.96,15,6,0,20,6,,0.00,7,Fog,195
2012-11-4,43,30,18,34,29,19,100,80,65,30.30,30.19,29.89,15,15,15,10,5,,0.00,4,,171
2012-11-5,53,42,30,36,26,16,70,49,26,30.22,30.05,29.86,15,15,15,20,14,30,0.00,3,,272
2012-11-6,41,32,23,27,25,21,86,70,49,30.27,30.09,29.73,15,15,15,18,9,25,0.00,7,,150
2012-11-7,40,32,23,32,25,19,86,76,60,30.22,29.93,29.72,20,15,7,22,13,32,0.01,7,Snow,346
2012-11-8,20,15,8,18,13,5,93,86,78,30.36,30.32,30.12,6,2,0,10,7,,0.08,8,Snow,49
2012-11-9,11,6,0,5,3,-4,92,79,63,30.34,30.31,30.04,7,4,0,10,7,,0.12,8,Snow,356
2012-11-10,5,-4,-13,-2,-6,-18,85,77,60,30.31,30.29,30.25,20,14,12,6,2,,0.01,2,Snow,301
2012-11-11,25,4,-16,12,5,-8,86,69,54,30.24,30.16,29.90,15,15,15,9,4,,0.00,4,,272
2012-11-12,37,25,13,21,19,16,74,58,40,30.09,30.07,29.93,20,16,15,21,14,22,0.00,6,,290
2012-11-13,39,30,22,21,18,12,68,55,40,30.14,30.08,29.91,15,15,15,20,8,24,0.00,5,,275
2012-11-14,40,30,19,22,19,12,86,61,41,30.23,30.09,29.95,15,15,15,21,13,28,0.00,2,,245
2012-11-15,40,28,17,21,16,10,74,54,30,30.21,30.10,29.80,15,15,15,10,5,,0.00,3,,308
2012-11-16,40,28,16,21,16,10,74,55,36,29.96,29.92,29.76,15,15,15,9,6,,0.00,4,,268
2012-11-17,42,32,21,30,22,14,75,62,40,29.90,29.77,29.56,20,16,15,14,5,17,0.00,6,,170
2012-11-18,41,32,23,27,20,12,93,61,28,29.88,29.66,29.43,20,17,15,31,11,40,0.00,5,,243
2012-11-19,42,30,18,27,23,18,86,68,51,29.77,29.67,29.54,20,16,15,9,3,,0.00,6,,21
2012-11-20,35,24,12,32,15,9,100,91,76,29.95,29.86,29.61,15,3,0,14,9,,0.00,7,Fog-Rain-Snow,101
2012-11-21,12,9,6,10,6,3,92,87,78,30.14,29.97,29.88,5,2,0,13,7,,0.02,8,Fog-Snow,51
2012-11-22,13,7,1,7,3,-2,92,80,66,30.59,30.52,30.22,20,16,15,8,4,,0.08,5,,270
2012-11-23,43,22,1,28,22,14,93,72,49,30.29,30.05,29.78,15,15,15,17,5,26,0.00,6,,280
2012-11-24,35,25,15,21,17,12,93,73,48,30.18,30.11,30.04,15,15,15,10,5,,0.00,3,,333
2012-11-25,32,22,13,18,14,7,93,73,48,30.31,30.22,30.10,20,16,15,12,3,,0.00,4,,302
2012-11-26,28,19,10,14,9,5,85,69,54,30.35,30.29,30.23,15,15,15,9,6,,0.00,3,,275
2012-11-27,26,18,10,16,12,7,80,71,53,30.27,30.19,30.09,20,16,15,8,5,,0.00,5,,268
2012-11-28,23,16,10,14,12,7,93,82,52,30.23,30.13,29.82,20,7,1,15,9,,0.00,8,,115
2012-11-29,12,10,7,9,7,5,92,87,82,30.00,29.94,29.84,4,2,0,9,6,,0.02,8,Fog-Snow,139
2012-11-30,10,6,3,7,5,3,92,85,77,29.89,29.82,29.60,15,5,0,9,6,,0.04,7,Fog-Snow,39